DW5828 Weather Reports


Display with metric or nautical units.
time (UTC)temp
F
wind
direction
speed
MPH
gust
MPH
rain 1hr
in
rain 24hr
in
rain mn
in
humidity
%
barometer
mb
20260503020532 57 0 0.0 2.0 0.00 0.00 0.00 51 1009.0
20260503020043 57 248 1.0 3.0 0.00 0.00 0.00 50 1009.0
20260503015533 57 221 1.0 4.0 0.00 0.00 0.00 52 1008.9
20260503015033 56 236 1.0 4.0 0.00 0.00 0.00 51 1008.9
20260503014546 56 220 0.0 3.0 0.00 0.00 0.00 51 1008.9
20260503014033 56 0 0.0 1.0 0.00 0.00 0.00 52 1009.0
20260503013533 56 0 0.0 1.0 0.00 0.00 0.00 51 1009.0
20260503013045 56 0 0.0 1.0 0.00 0.00 0.00 53 1009.2
20260503012532 56 0 0.0 1.0 0.00 0.00 0.00 52 1009.1
20260503012032 56 0 0.0 0.0 0.00 0.00 0.00 51 1009.1
20260503011547 56 0 0.0 0.0 0.00 0.00 0.00 52 1009.2
20260503011034 56 0 0.0 0.0 0.00 0.00 0.00 51 1009.3
20260503010535 57 0 0.0 0.0 0.00 0.00 0.00 50 1009.0
20260503010045 57 0 0.0 0.0 0.00 0.00 0.00 51 1009.3
20260503005532 57 0 0.0 0.0 0.00 0.00 0.00 51 1009.3
20260503005034 57 0 0.0 0.0 0.00 0.00 0.00 51 1009.3
20260503004548 58 0 0.0 0.0 0.00 0.00 0.00 52 1009.4
20260503004033 58 0 0.0 0.0 0.00 0.00 0.00 52 1009.3
20260503003533 58 0 0.0 1.0 0.00 0.00 0.00 49 1009.3
20260503003046 58 0 0.0 1.0 0.00 0.00 0.00 49 1009.4
20260503002533 59 335 0.0 1.0 0.00 0.00 0.00 47 1009.4
20260503002034 59 0 0.0 1.0 0.00 0.00 0.00 47 1009.4
20260503001545 59 41 0.0 1.0 0.00 0.00 0.00 48 1009.6
20260503001034 59 0 0.0 1.0 0.00 0.00 0.00 46 1009.6
20260503000532 59 0 0.0 0.0 0.00 0.00 0.00 46 1009.6
20260503000050 59 0 0.0 0.0 0.00 0.00 0.00 46 1009.7
20260502235533 59 0 0.0 0.0 0.00 0.00 0.00 46 1009.7
20260502235035 59 0 0.0 0.0 0.00 0.00 0.00 46 1009.7
20260502234558 59 0 0.0 1.0 0.00 0.00 0.00 43 1009.8
20260502234034 60 0 0.0 2.0 0.00 0.00 0.00 42 1009.8
20260502233535 60 0 0.0 2.0 0.00 0.00 0.00 42 1009.8
20260502233043 60 250 0.0 2.0 0.00 0.00 0.00 41 1009.8
20260502232534 60 259 0.0 2.0 0.00 0.00 0.00 42 1009.8
20260502232034 60 261 0.0 3.0 0.00 0.00 0.00 43 1009.9
20260502231557 60 241 0.0 3.0 0.00 0.00 0.00 42 1009.9
20260502231033 60 0 0.0 3.0 0.00 0.00 0.00 41 1010.0
20260502230535 60 0 0.0 3.0 0.00 0.00 0.00 41 1010.1
20260502230047 61 244 0.0 3.0 0.00 0.00 0.00 42 1010.2
20260502225534 61 239 0.0 2.0 0.00 0.00 0.00 43 1010.2
20260502225033 61 246 0.0 2.0 0.00 0.00 0.00 42 1010.2
20260502224545 61 248 0.0 2.0 0.00 0.00 0.00 41 1010.4
20260502224034 61 258 0.0 2.0 0.00 0.00 0.00 41 1010.4
20260502223534 61 258 0.0 2.0 0.00 0.00 0.00 42 1010.5
20260502223046 61 251 0.0 2.0 0.00 0.00 0.00 41 1010.6
20260502222531 61 257 0.0 2.0 0.00 0.00 0.00 41 1010.6
20260502222031 61 185 0.0 2.0 0.00 0.00 0.00 41 1010.6
20260502221543 61 266 0.0 2.0 0.00 0.00 0.00 41 1010.7
20260502221030 61 93 0.0 2.0 0.00 0.00 0.00 41 1010.8
20260502220530 61 288 0.0 4.0 0.00 0.00 0.00 40 1010.8
20260502220045 62 0 0.0 4.0 0.00 0.00 0.00 38 1010.9
20260502215530 62 215 0.0 4.0 0.00 0.00 0.00 40 1010.9
20260502215030 63 248 1.0 4.0 0.00 0.00 0.00 37 1010.9
20260502214547 64 258 1.0 4.0 0.00 0.00 0.00 37 1011.0
20260502214030 65 265 2.0 4.0 0.00 0.00 0.00 39 1011.1
20260502213534 65 101 1.0 4.0 0.00 0.00 0.00 38 1011.1
20260502213058 65 85 1.0 4.0 0.00 0.00 0.00 38 1011.2
20260502212533 64 252 1.0 4.0 0.00 0.00 0.00 38 1011.3
20260502212034 64 225 1.0 4.0 0.00 0.00 0.00 38 1011.4
20260502211545 64 251 1.0 4.0 0.00 0.00 0.00 40 1011.4
20260502211031 64 256 2.0 4.0 0.00 0.00 0.00 36 1011.4
20260502210530 63 295 1.0 5.0 0.00 0.00 0.00 37 1011.6
20260502210055 63 258 2.0 5.0 0.00 0.00 0.00 36 1011.7
20260502205530 63 243 2.0 5.0 0.00 0.00 0.00 39 1011.7
20260502205034 63 248 1.0 4.0 0.00 0.00 0.00 38 1011.7
20260502204541 63 74 1.0 4.0 0.00 0.00 0.00 36 1011.8
20260502204030 63 256 1.0 4.0 0.00 0.00 0.00 43 1012.0
20260502203529 62 220 0.0 3.0 0.00 0.00 0.00 41 1012.0
20260502203047 62 6 1.0 5.0 0.00 0.00 0.00 35 1012.1
20260502202530 63 238 1.0 7.0 0.00 0.00 0.00 39 1012.3
20260502202030 63 270 2.0 7.0 0.00 0.00 0.00 39 1012.3
20260502201550 63 238 1.0 5.0 0.00 0.00 0.00 42 1012.3
20260502201032 63 17 1.0 5.0 0.00 0.00 0.00 39 1012.5
20260502200531 63 229 2.0 5.0 0.00 0.00 0.00 42 1012.6
20260502200057 62 32 1.0 6.0 0.00 0.00 0.00 41 1012.6
20260502195530 63 191 1.0 6.0 0.00 0.00 0.00 41 1012.8
20260502195030 63 253 1.0 4.0 0.00 0.00 0.00 40 1012.7
20260502194544 64 249 1.0 3.0 0.00 0.00 0.00 37 1012.8
20260502194030 64 11 1.0 3.0 0.00 0.00 0.00 37 1013.0
20260502193530 63 186 1.0 3.0 0.00 0.00 0.00 37 1013.0
20260502193050 63 257 1.0 3.0 0.00 0.00 0.00 37 1013.1
20260502192533 63 235 1.0 8.0 0.00 0.00 0.00 41 1013.2
20260502192033 62 120 1.0 8.0 0.00 0.00 0.00 43 1013.1
20260502191546 63 239 2.0 4.0 0.00 0.00 0.00 35 1013.2
20260502191035 62 309 1.0 4.0 0.00 0.00 0.00 43 1013.3
20260502190536 62 131 1.0 4.0 0.00 0.00 0.00 36 1013.4
20260502190044 62 270 1.0 4.0 0.00 0.00 0.00 40 1013.5
20260502185532 62 63 1.0 4.0 0.00 0.00 0.00 40 1013.6
20260502185033 62 44 1.0 5.0 0.00 0.00 0.00 37 1013.5
20260502184555 62 70 2.0 5.0 0.00 0.00 0.00 40 1013.6
20260502184031 62 271 2.0 5.0 0.00 0.00 0.00 37 1013.8
20260502183534 62 37 1.0 4.0 0.00 0.00 0.00 41 1013.8
20260502183046 61 248 1.0 5.0 0.00 0.00 0.00 35 1013.9
20260502182534 62 21 1.0 5.0 0.00 0.00 0.00 40 1014.0
20260502182036 62 252 1.0 5.0 0.00 0.00 0.00 41 1014.2
20260502181546 61 295 2.0 5.0 0.00 0.00 0.00 41 1014.1
20260502181033 61 251 2.0 5.0 0.00 0.00 0.00 40 1014.2
20260502180533 61 3 2.0 4.0 0.00 0.00 0.00 38 1014.4
20260502164030 59 41 1.0 4.0 0.00 0.00 0.00 43 1015.5
20260502163530 59 49 1.0 4.0 0.00 0.00 0.00 38 1015.5
20260502163046 58 246 1.0 3.0 0.00 0.00 0.00 41 1015.6
20260502162533 57 21 1.0 4.0 0.00 0.00 0.00 40 1015.6
20260502162033 57 61 1.0 6.0 0.00 0.00 0.00 40 1015.6
20260502161545 58 346 2.0 6.0 0.00 0.00 0.00 35 1015.8
20260502161034 58 37 2.0 4.0 0.00 0.00 0.00 37 1015.7
20260502160537 58 231 1.0 3.0 0.00 0.00 0.00 39 1015.8
20260502152031 55 257 1.0 3.0 0.00 0.00 0.00 43 1016.2
20260502151546 56 43 1.0 3.0 0.00 0.00 0.00 40 1016.2
20260502151031 56 347 0.0 3.0 0.00 0.00 0.00 50 1016.2
20260502150533 56 0 0.0 2.0 0.00 0.00 0.00 48 1016.2
20260502130537 43 0 0.0 2.0 0.00 0.00 0.00 73 1016.5
20260502123532 38 259 0.0 1.0 0.00 0.00 0.00 77 1016.5
20260502123051 37 0 0.0 1.0 0.00 0.00 0.00 78 1016.5
20260502122534 36 0 0.0 1.0 0.00 0.00 0.00 80 1016.5
20260502122035 35 0 0.0 0.0 0.00 0.00 0.00 82 1016.5
20260502121550 35 0 0.0 0.0 0.00 0.00 0.00 83 1016.6
20260502121031 34 0 0.0 0.0 0.00 0.00 0.00 83 1016.5
20260502120534 34 0 0.0 0.0 0.00 0.00 0.00 82 1016.5
20260502115533 34 0 0.0 0.0 0.00 0.00 0.00 81 1016.5
20260502115030 34 0 0.0 0.0 0.00 0.00 0.00 81 1016.5
20260502114545 34 0 0.0 0.0 0.00 0.00 0.00 80 1016.5
20260502114033 34 204 0.0 0.0 0.00 0.00 0.00 81 1016.5
20260502113533 33 204 0.0 0.0 0.00 0.00 0.00 82 1016.5
20260502113046 33 204 0.0 0.0 0.00 0.00 0.00 82 1016.5
20260502112530 32 204 0.0 0.0 0.00 0.00 0.00 83 1016.5
20260502112033 32 204 0.0 0.0 0.00 0.00 0.00 83 1016.5
20260502111559 31 0 0.0 0.0 0.00 0.00 0.00 83 1016.5
20260502111033 31 0 0.0 0.0 0.00 0.00 0.00 83 1016.5
20260502110533 31 0 0.0 1.0 0.00 0.00 0.00 83 1016.5
20260502110044 31 0 0.0 1.0 0.00 0.00 0.00 82 1016.5
20260502105533 31 204 0.0 0.0 0.00 0.00 0.00 82 1016.5
20260502105033 31 0 0.0 0.0 0.00 0.00 0.00 81 1016.5
20260502104547 31 0 0.0 0.0 0.00 0.00 0.00 81 1016.5
20260502104030 31 0 0.0 0.0 0.00 0.00 0.00 80 1016.5
20260502103530 32 0 0.0 0.0 0.00 0.00 0.00 79 1016.5
20260502103059 32 0 0.0 0.0 0.00 0.00 0.00 79 1016.4
20260502102534 32 0 0.0 0.0 0.00 0.00 0.00 79 1016.5
20260502102030 32 0 0.0 0.0 0.00 0.00 0.00 78 1016.5
20260502101546 32 0 0.0 0.0 0.00 0.00 0.00 78 1016.4
20260502101030 32 0 0.0 0.0 0.00 0.00 0.00 76 1016.4
20260502100530 33 0 0.0 0.0 0.00 0.00 0.00 76 1016.5
20260502091031 32 204 0.0 1.0 0.00 0.00 0.00 80 1016.5
20260502090530 32 203 0.0 0.0 0.00 0.00 0.00 80 1016.4
20260502071030 35 0 0.0 0.0 0.00 0.00 0.00 71 1016.6
20260502070531 36 0 0.0 0.0 0.00 0.00 0.00 70 1016.7
20260502070047 36 0 0.0 0.0 0.00 0.00 0.00 67 1016.7
20260502065531 36 0 0.0 0.0 0.00 0.00 0.00 67 1016.7
20260502065032 36 0 0.0 0.0 0.00 0.00 0.00 66 1016.7
20260502064543 36 0 0.0 0.0 0.00 0.00 0.00 66 1016.8
20260502064034 36 0 0.0 0.0 0.00 0.00 0.00 67 1016.8
20260502063534 36 0 0.0 0.0 0.00 0.00 0.00 69 1016.8
20260502063047 36 0 0.0 0.0 0.00 0.00 0.00 69 1016.9
20260502062533 35 0 0.0 0.0 0.00 0.00 0.00 70 1017.0
20260502062032 35 0 0.0 0.0 0.00 0.00 0.00 72 1017.0
20260502061546 35 0 0.0 0.0 0.00 0.00 0.00 74 1016.9
20260502061030 35 0 0.0 0.0 0.00 0.00 0.00 73 1017.0
20260502060534 35 0 0.0 0.0 0.00 0.00 0.00 73 1016.9
20260502060047 36 0 0.0 0.0 0.00 0.00 0.00 72 1017.0
20260502055533 36 0 0.0 0.0 0.00 0.00 0.00 70 1016.9
20260502055032 36 0 0.0 0.0 0.00 0.00 0.00 69 1016.9
20260502054545 35 0 0.0 0.0 0.00 0.00 0.00 70 1016.9
20260502054033 35 0 0.0 0.0 0.00 0.00 0.00 70 1016.9
20260502053530 35 0 0.0 0.0 0.00 0.00 0.00 71 1016.9
20260502053042 35 0 0.0 0.0 0.00 0.00 0.00 69 1017.0
20260502052530 35 0 0.0 0.0 0.00 0.00 0.00 68 1016.9
20260502052038 36 0 0.0 0.0 0.00 0.00 0.00 68 1016.9
20260502051545 37 0 0.0 0.0 0.00 0.00 0.00 68 1016.9
20260502051030 37 0 0.0 0.0 0.00 0.00 0.00 66 1016.9
20260502050530 38 0 0.0 0.0 0.00 0.00 0.00 64 1017.0
20260502050045 38 0 0.0 0.0 0.00 0.00 0.00 63 1016.9
20260502045533 39 0 0.0 0.0 0.00 0.00 0.00 63 1016.9
20260502045033 39 0 0.0 1.0 0.00 0.00 0.00 61 1017.0
20260502044548 38 0 0.0 1.0 0.00 0.00 0.00 60 1017.0
20260502044032 38 0 0.0 1.0 0.00 0.00 0.00 61 1017.0
20260502043534 38 0 0.0 0.0 0.00 0.00 0.00 63 1017.0
20260502043042 38 0 0.0 0.0 0.00 0.00 0.00 62 1017.0
20260502042533 38 0 0.0 0.0 0.00 0.00 0.00 62 1017.0
20260502042033 39 0 0.0 1.0 0.00 0.00 0.00 63 1017.0
20260502041544 39 0 0.0 1.0 0.00 0.00 0.00 66 1017.0
20260502041031 39 0 0.0 1.0 0.00 0.00 0.00 64 1017.0
20260502040533 40 0 0.0 1.0 0.00 0.00 0.00 64 1017.1
20260502040046 40 0 0.0 1.0 0.00 0.00 0.00 64 1017.2
20260502035532 39 219 0.0 1.0 0.00 0.00 0.00 66 1017.1
20260502035030 39 0 0.0 0.0 0.00 0.00 0.00 72 1017.0
20260502034542 39 0 0.0 0.0 0.00 0.00 0.00 74 1017.1
20260502034032 40 0 0.0 0.0 0.00 0.00 0.00 72 1017.0
20260502033533 40 0 0.0 0.0 0.00 0.00 0.00 69 1017.0
20260502033048 40 0 0.0 0.0 0.00 0.00 0.00 66 1016.8
20260502032532 40 0 0.0 2.0 0.00 0.00 0.00 64 1016.8
20260502032036 40 0 0.0 2.0 0.00 0.00 0.00 62 1016.9
20260502031543 40 219 1.0 2.0 0.00 0.00 0.00 63 1016.8
20260502031033 40 219 0.0 1.0 0.00 0.00 0.00 70 1016.8
20260502030533 40 0 0.0 1.0 0.00 0.00 0.00 68 1016.8
20260502030049 40 0 0.0 1.0 0.00 0.00 0.00 65 1016.9
20260502025533 40 0 0.0 0.0 0.00 0.00 0.00 65 1016.9
20260502025032 40 0 0.0 0.0 0.00 0.00 0.00 64 1016.9
20260502024552 40 0 0.0 0.0 0.00 0.00 0.00 63 1016.8
20260502024033 41 0 0.0 1.0 0.00 0.00 0.00 61 1016.8
20260502023533 41 0 0.0 1.0 0.00 0.00 0.00 61 1016.8
20260502023050 41 0 0.0 1.0 0.00 0.00 0.00 60 1016.8
20260502022532 41 0 0.0 1.0 0.00 0.00 0.00 59 1016.7
20260502022033 41 188 1.0 1.0 0.00 0.00 0.00 57 1016.7
20260502021545 41 162 0.0 0.0 0.00 0.00 0.00 57 1016.7
20260502021034 41 0 0.0 0.0 0.00 0.00 0.00 56 1016.6